COSMOS 1275 DEB, 13478

Orbit data source: Space-Track

COSMOS 1275 DEB, 13478 is space debris in LEO originally from a launch on Thu, 04 Jun 1981 UTC launched from the Plesetsk Missile And Space Complex (PKMTR). Debris objects in space refer to the collection of defunct objects orbiting the Earth. Examples of debris include non-operational satellites, rocket bodies, and fragments generated from explosions, collisions, or faulty payload assembly.

Loading next visibility...
Identifier
13478, 1981-053FY
Orbit
LEO
Country
Flag of CISCIS
Related business
Manufacturer
Unknown
Mission
Spacecraft
Bus & Motor
Unknown
Mass
Unknown
Launch date (UTC)
1981-06-04 (45 years ago)
Launch vehicle
Unknown
Launch site
Plesetsk Missile And Space Complex (PKMTR)
Object type
Payload
Rocket body
Debris
Shape & HBR
Unknown shape, 0.1 m
Radar Cross Section
Small (<0.1 m²)

Expand to show TLE details & history
Last TLE update: 13 hours ago

TLE from 13 hours ago
0 COSMOS 1275 DEB
1 13478U 81053FY  26037.08533359  .00000415  00000-0  35929-3 0  9995
2 13478  82.8639 259.5015 0095830  58.6456 105.0145 13.81879181191034
Epoch: 2026-02-06T02:02Z
TLE epoch observation values (Epoch: 2026-02-06T02:02:52.822Z)
Latitude
15.13711°
Longitude
-89.37762°
Altitude
978.28 km
Speed
7.354 km/s
True Right ascension
05h 10m 16s
True Declination
15° 03' 12"
Sunlit
Object was in full shadow at epoch
Visualization orbit readout
Latitude
Unknown
Longitude
Unknown
Altitude
Unknown
Speed
Unknown
Apparent Right ascension
Unknown
Apparent Declination
Unknown
Sunlit
N/A
Visualization observer readout
Local Sidereal Time
17:22:21
Azimuth
Unknown
Elevation
Unknown
Doppler factor
Unknown
Orbital elements
Apogee altitude
1,024.638 km
Perigee altitude
884.104 km
Semi-major axis
7,332.508 km
Eccentricity
0.00958
Inclination
82.8639°
RAAN
259.5015°
Arg. of periapsis
58.6456°
True anomaly
106.0718°
Mean anomaly
105.0145°
Eccentric anomaly
105.54348°
Mean motion
3.45672 °/min
Orbital period
104.14 mins
BSTAR
0.00035929
Loading maneuver chart data...
Computing Atmospheric mass density...
Loading historical data...
Loading historical data...
Loading historical data...
Loading historical data...
Loading historical data...
Loading historical data...
Loading historical data...

Documentation

Showing up to 5 results
|